Location: Mahannah Oil Field
(37.4664°N, 96.6003°W)
Time: 08:54:59
(UTC+00:00)

Courier 1B - Pass Details

Date: 25 January 2021
Orbit: 962 x 1209 km, 28.3° (Epoch: 02 March)

Event Time Altitude Azimuth Distance (km) Brightness Sun altitude
Rises 05:08:52 0° 232° (SW) 3,787 - -63.0°
Reaches altitude 10° 05:12:02 10° 221° (SW) 2,796 - -63.5°
Maximum altitude 05:17:35 28° 165° (SSE) 1,773 - -64.3°
Drops below altitude 10° 05:22:58 10° 109° (ESE) 2,703 - -65.1°
Sets 05:25:57 0° 98° (E) 3,638 - -65.6°
